KP3T Weather Reports


Display with metric or nautical units.
time (UTC)temp
F
wind
direction
speed
MPH
gust
MPH
rain 1hr
in
rain 24hr
in
rain mn
in
humidity
%
barometer
mb
20260504120119 82 180 0.0 2.0 0.00 0.00 0.00 100
20260504110616 75 180 0.0 0.0 0.00 0.00 0.00 100
20260504110118 76 180 0.0 0.0 0.00 0.00 0.00 100
20260504100613 71 180 0.0 0.0 0.00 0.00 0.00 100
20260504100112 71 180 0.0 0.0 0.00 0.00 0.00 100
20260504090109 70 180 0.0 0.0 0.00 0.00 0.00 100
20260504081606 71 180 0.0 0.0 0.00 0.00 0.00 100
20260504080606 73 180 0.0 3.0 0.00 0.00 0.00 100
20260504080156 72 180 0.0 0.0 0.00 0.00 0.00 100
20260504080105 72 180 0.0 0.0 0.00 0.00 0.00 100
20260504050555 74 180 0.0 4.0 0.00 0.00 0.00 100
20260504045555 73 180 0.0 5.0 0.00 0.00 0.00 100
20260504045054 73 180 0.0 4.0 0.00 0.00 0.00 100
20260504044554 74 180 0.0 0.0 0.00 0.00 0.00 100
20260504044054 74 180 0.0 0.0 0.00 0.00 0.00 100
20260504043553 74 180 0.0 0.0 0.00 0.00 0.00 100
20260504043053 76 180 0.0 0.0 0.00 0.00 0.00 100
20260504042554 74 180 0.0 0.0 0.00 0.00 0.00 100
20260504042052 75 180 0.0 0.0 0.00 0.00 0.00 100
20260504041552 75 180 0.0 0.0 0.00 0.00 0.00 100
20260504041052 75 180 0.0 0.0 0.00 0.00 0.00 100
20260504040552 75 180 0.0 0.0 0.00 0.00 0.00 100
20260504040051 76 180 0.0 0.0 0.00 0.00 0.00 100
20260504035552 75 180 0.0 0.0 0.00 0.00 0.00 100
20260504035051 76 180 0.0 0.0 0.00 0.00 0.00 100
20260504034550 76 180 0.0 0.0 0.00 0.00 0.00 100
20260504034050 76 180 0.0 0.0 0.00 0.00 0.00 100
20260504033550 77 180 0.0 0.0 0.00 0.00 0.00 100
20260504033050 76 180 0.0 0.0 0.00 0.00 0.00 100
20260504032550 76 180 0.0 0.0 0.00 0.00 0.00 100
20260504032049 76 180 0.0 0.0 0.00 0.00 0.00 100
20260504031048 76 180 0.0 0.0 0.00 0.00 0.00 100
20260504030548 76 180 0.0 0.0 0.00 0.00 0.00 100
20260504030048 76 180 0.0 2.0 0.00 0.00 0.00 100
20260504025047 76 180 0.0 0.0 0.00 0.00 0.00 100
20260504024047 77 180 0.0 0.0 0.00 0.00 0.00 100
20260504022046 77 180 0.0 3.0 0.00 0.00 0.00 100
20260504020044 77 180 0.0 0.0 0.00 0.00 0.00 100
20260504015044 76 180 0.0 0.0 0.00 0.00 0.00 100
20260504014043 78 180 0.0 0.0 0.00 0.00 0.00 100
20260504013043 79 180 0.0 0.0 0.00 0.00 0.00 100
20260504012042 79 180 0.0 0.0 0.00 0.00 0.00 100
20260504011041 79 180 0.0 0.0 0.00 0.00 0.00 100
20260504010547 80 180 0.0 0.0 0.00 0.00 0.00 100
20260504005547 80 180 0.0 0.0 0.00 0.00 0.00 100
20260504004540 80 180 0.0 0.0 0.00 0.00 0.00 100
20260504004040 80 180 0.0 0.0 0.00 0.00 0.00 100
20260504003539 80 180 0.0 0.0 0.00 0.00 0.00 100
20260504003039 80 180 0.0 0.0 0.00 0.00 0.00 100
20260504002539 81 180 0.0 0.0 0.00 0.00 0.00 100
20260504002039 80 180 0.0 0.0 0.00 0.00 0.00 100
20260504001538 79 180 0.0 0.0 0.00 0.00 0.00 100
20260504001038 82 180 0.0 0.0 0.00 0.00 0.00 100
20260504000538 81 180 0.0 0.0 0.00 0.00 0.00 100
20260503235537 81 180 0.0 0.0 0.00 0.00 0.00 100
20260503235037 80 180 0.0 0.0 0.00 0.00 0.00 100
20260503234536 81 180 0.0 0.0 0.00 0.00 0.00 100
20260503234036 82 180 0.0 0.0 0.00 0.00 0.00 100
20260503233536 81 180 0.0 0.0 0.00 0.00 0.00 100
20260503233036 81 180 0.0 0.0 0.00 0.00 0.00 100
20260503232536 82 180 0.0 0.0 0.00 0.00 0.00 100
20260503232035 83 180 0.0 0.0 0.00 0.00 0.00 100
20260503231534 82 180 0.0 0.0 0.00 0.00 0.00 100
20260503231034 83 180 0.0 0.0 0.00 0.00 0.00 100
20260503230534 82 180 0.0 0.0 0.00 0.00 0.00 100
20260503230034 83 180 0.0 0.0 0.00 0.00 0.00 100
20260503222031 84 180 0.0 0.0 0.00 0.00 0.00 100
20260503221531 84 180 0.0 0.0 0.00 0.00 0.00 100
20260503221031 84 180 0.0 0.0 0.00 0.00 0.00 100
20260503220530 84 180 0.0 0.0 0.00 0.00 0.00 100
20260503220030 84 180 0.0 0.0 0.00 0.00 0.00 100
20260503215530 84 180 0.0 0.0 0.00 0.00 0.00 100
20260503215030 84 180 0.0 0.0 0.00 0.00 0.00 100
20260503214529 85 180 0.0 0.0 0.00 0.00 0.00 100
20260503214029 85 180 0.0 0.0 0.00 0.00 0.00 100
20260503213529 84 180 0.0 0.0 0.00 0.00 0.00 100
20260503213028 84 180 0.0 0.0 0.00 0.00 0.00 100
20260503212529 84 180 0.0 0.0 0.00 0.00 0.00 100
20260503212028 85 180 0.0 0.0 0.00 0.00 0.00 100
20260503211528 84 180 0.0 0.0 0.00 0.00 0.00 100
20260503211027 86 180 0.0 0.0 0.00 0.00 0.00 100
20260503210527 85 180 0.0 0.0 0.00 0.00 0.00 100
20260503210027 85 180 0.0 0.0 0.00 0.00 0.00 100
20260503205527 86 180 0.0 0.0 0.00 0.00 0.00 100
20260503205026 86 180 0.0 3.0 0.00 0.00 0.00 100
20260503203525 86 180 0.0 0.0 0.00 0.00 0.00 100
20260503203025 86 180 0.0 0.0 0.00 0.00 0.00 100
20260503202525 86 180 0.0 0.0 0.00 0.00 0.00 100
20260503202024 86 180 0.0 3.0 0.00 0.00 0.00 100
20260503201525 85 180 0.0 0.0 0.00 0.00 0.00 100
20260503201024 86 180 0.0 0.0 0.00 0.00 0.00 100
20260503200523 86 180 0.0 0.0 0.00 0.00 0.00 100
20260503200023 86 180 0.0 4.0 0.00 0.00 0.00 100
20260503195523 87 180 0.0 3.0 0.00 0.00 0.00 100
20260503195022 89 180 0.0 0.0 0.00 0.00 0.00 100
20260503194022 85 180 0.0 2.0 0.00 0.00 0.00 100
20260503193021 86 180 0.0 0.0 0.00 0.00 0.00 100
20260503192021 86 180 0.0 0.0 0.00 0.00 0.00 100
20260503191521 86 180 0.0 0.0 0.00 0.00 0.00 100
20260503191020 85 180 0.0 3.0 0.00 0.00 0.00 100
20260503190520 85 180 0.0 0.0 0.00 0.00 0.00 100
20260503190020 86 180 0.0 0.0 0.00 0.00 0.00 100
20260503185520 85 180 0.0 0.0 0.00 0.00 0.00 100
20260503185019 87 180 0.0 0.0 0.00 0.00 0.00 100
20260503184519 87 180 0.0 0.0 0.00 0.00 0.00 100
20260503184019 86 180 0.0 0.0 0.00 0.00 0.00 100
20260503183018 90 180 0.0 0.0 0.00 0.00 0.00 100
20260503181612 87 180 0.0 4.0 0.00 0.00 0.00 100
20260503181112 88 180 0.0 6.0 0.00 0.00 0.00 100
20260503180611 88 180 0.0 4.0 0.00 0.00 0.00 100
20260503180111 87 180 0.0 4.0 0.00 0.00 0.00 100
20260503175611 93 180 0.0 0.0 0.00 0.00 0.00 100
20260503175111 88 180 0.0 3.0 0.00 0.00 0.00 100
20260503174610 87 180 0.0 6.0 0.00 0.00 0.00 100
20260503173610 87 180 0.0 6.0 0.00 0.00 0.00 100
20260503173109 88 180 3.0 9.0 0.00 0.00 0.00 100
20260503172609 91 180 0.0 0.0 0.00 0.00 0.00 100
20260503172106 89 180 0.0 7.0 0.00 0.00 0.00 100
20260503171606 87 180 0.0 6.0 0.00 0.00 0.00 100
20260503171106 89 180 0.0 0.0 0.00 0.00 0.00 100
20260503170605 87 180 0.0 0.0 0.00 0.00 0.00 100
20260503170105 87 180 0.0 0.0 0.00 0.00 0.00 100
20260503150558 93 180 0.0 2.0 0.00 0.00 0.00 100
20260503131051 95 180 0.0 0.0 0.00 0.00 0.00 100
20260503130551 96 180 0.0 0.0 0.00 0.00 0.00 100